Location: Mentone
(34.5413°N, 85.5351°W)
Time: 03:27:23
(UTC-05:00)

Transit 2A Rocket - Visible Passes

Search period start: 27 May 2016 00:00
Search period end: 06 June 2016 00:00
Orbit: 585 x 920 km, 66.7° (Epoch: 26 May)

Date Brightness Start Highest point End Pass type
(mag) Time Alt. Az. Time Alt. Az. Time Alt. Az.
27 May 8.2 04:08:30 10° N 04:12:55 20° NE 04:17:19 10° E visible
27 May 6.6 20:21:15 10° SW 20:26:00 41° WNW 20:31:14 10° NNE visible
28 May 8.7 03:27:31 10° NNE 03:30:08 13° NE 03:32:44 10° ENE visible
28 May 8.7 21:26:07 10° NW 21:27:19 11° NW 21:28:34 10° NNW visible
29 May 6.7 04:25:33 10° NNW 04:31:25 44° ENE 04:37:07 10° SE visible
29 May 8.2 20:41:01 10° W 20:44:29 18° NW 20:48:12 10° N visible
30 May 7.5 03:43:41 10° N 03:48:52 28° NE 03:53:56 10° ESE visible
31 May 8.1 03:02:10 10° N 03:06:11 18° NE 03:10:07 10° E visible
31 May 5.3 04:43:21 10° NNW 04:49:31 79° WSW 04:55:27 10° SSE visible
01 Jun 8.5 02:21:47 10° NNE 02:23:20 11° NE 02:24:51 10° ENE visible
01 Jun 5.9 04:01:05 10° NNW 04:07:12 63° ENE 04:13:05 10° SE visible
01 Jun 8.5 20:18:09 10° WNW 20:20:30 13° NW 20:22:56 10° NNW visible
02 Jun 6.8 03:19:03 10° N 03:24:44 38° ENE 03:30:16 10° SE visible
02 Jun 6.1 05:01:57 10° NW 05:07:15 31° WSW 05:12:22 10° SSW visible
03 Jun 7.5 02:37:16 10° N 02:42:09 24° NE 02:46:55 10° ESE visible
03 Jun 5.4 04:19:11 10° NW 04:25:08 54° WSW 04:30:52 10° S visible
04 Jun 8.1 01:55:56 10° NNE 01:59:23 15° NE 02:02:48 10° E visible
04 Jun 5.3 03:36:44 10° NNW 03:42:54 89° ENE 03:48:51 10° SSE visible
05 Jun 6.0 02:54:31 10° NNW 03:00:32 53° ENE 03:06:20 10° SE visible
05 Jun 6.5 04:38:17 10° WNW 04:42:44 21° WSW 04:47:02 10° SSW visible
